• Em Portugal
  • Lista de países
  • Para 7 dias
  • Temperatura da água
  • Mapas de satélite
  • Mapa do tempo
  • Widgets de tempo
  • user-avatar
    Iniciar Sessão

    Previsão horária em Vlora

    Hoje, 24 Outubro, Quarta-feira

    Tempo Temperatura Precipitação Vento Pressão Humidade
    00:00 +17°C° 0 mm 5 m/s 759 mmHg 62%
    01:00 +16°C° 0 mm 5 m/s 759 mmHg 63%
    02:00 +16°C° 0 mm 5 m/s 759 mmHg 64%
    03:00 +15°C° 0 mm 5 m/s 758 mmHg 65%
    04:00 +15°C° 0 mm 5 m/s 758 mmHg 66%
    05:00 +15°C° 0 mm 5 m/s 758 mmHg 65%
    06:00 +16°C° 0 mm 5 m/s 758 mmHg 64%
    07:00 +16°C° 0 mm 5 m/s 758 mmHg 64%
    08:00 +17°C° 0 mm 5 m/s 758 mmHg 57%
    09:00 +20°C° 0 mm 6 m/s 758 mmHg 51%
    10:00 +21°C° 0 mm 6 m/s 758 mmHg 44%
    11:00 +22°C° 0 mm 6 m/s 757 mmHg 43%
    12:00 +23°C° 0 mm 7 m/s 757 mmHg 41%
    13:00 +23°C° 0 mm 7 m/s 757 mmHg 40%
    14:00 +22°C° 0 mm 7 m/s 756 mmHg 42%
    15:00 +22°C° 0 mm 8 m/s 756 mmHg 45%
    16:00 +21°C° 0 mm 8 m/s 756 mmHg 47%
    17:00 +20°C° 0 mm 7 m/s 756 mmHg 52%
    18:00 +18°C° 0 mm 7 m/s 756 mmHg 56%
    19:00 +16°C° 0 mm 7 m/s 757 mmHg 61%
    20:00 +16°C° 0 mm 7 m/s 757 mmHg 63%
    21:00 +16°C° 0 mm 7 m/s 757 mmHg 64%
    22:00 +16°C° 0 mm 7 m/s 757 mmHg 66%
    23:00 +15°C° 0 mm 7 m/s 758 mmHg 72%

    Amanhã, 25 Outubro, Quinta-feira

    Tempo Temperatura Precipitação Vento Pressão Humidade
    00:00 +15°C° 0 mm 7 m/s 758 mmHg 78%
    01:00 +15°C° 0 mm 8 m/s 758 mmHg 85%
    02:00 +15°C° 0 mm 9 m/s 759 mmHg 86%
    03:00 +14°C° 0 mm 10 m/s 759 mmHg 87%
    04:00 +13°C° 0 mm 10 m/s 759 mmHg 87%
    05:00 +13°C° 0 mm 10 m/s 760 mmHg 84%
    06:00 +13°C° 0 mm 10 m/s 761 mmHg 80%
    07:00 +13°C° 0 mm 10 m/s 761 mmHg 77%
    08:00 +16°C° 0 mm 9 m/s 762 mmHg 65%
    09:00 +17°C° 0 mm 9 m/s 762 mmHg 53%
    10:00 +20°C° 0 mm 8 m/s 763 mmHg 41%
    11:00 +20°C° 0 mm 8 m/s 763 mmHg 37%
    12:00 +21°C° 0 mm 8 m/s 763 mmHg 33%
    13:00 +22°C° 0 mm 8 m/s 762 mmHg 28%
    14:00 +22°C° 0 mm 8 m/s 762 mmHg 30%
    15:00 +21°C° 0 mm 8 m/s 762 mmHg 32%
    16:00 +20°C° 0 mm 8 m/s 762 mmHg 34%
    17:00 +18°C° 0 mm 7 m/s 763 mmHg 35%
    18:00 +17°C° 0 mm 6 m/s 763 mmHg 36%
    19:00 +15°C° 0 mm 6 m/s 763 mmHg 37%
    20:00 +15°C° 0 mm 5 m/s 763 mmHg 36%
    21:00 +15°C° 0 mm 4 m/s 763 mmHg 36%
    22:00 +16°C° 0 mm 3 m/s 763 mmHg 35%
    23:00 +16°C° 0 mm 3 m/s 763 mmHg 35%

    Depois de amanhã, 26 Outubro, Sexta-feira

    Tempo Temperatura Precipitação Vento Pressão Humidade
    00:00 +16°C° 0 mm 2 m/s 763 mmHg 34%
    01:00 +16°C° 0 mm 2 m/s 763 mmHg 34%
    02:00 +16°C° 0 mm 2 m/s 763 mmHg 34%
    03:00 +16°C° 0 mm 2 m/s 763 mmHg 34%
    04:00 +16°C° 0 mm 1 m/s 763 mmHg 34%
    05:00 +16°C° 0 mm 2 m/s 763 mmHg 36%
    06:00 +17°C° 0 mm 3 m/s 763 mmHg 38%
    07:00 +17°C° 0 mm 3 m/s 763 mmHg 40%
    08:00 +19°C° 0 mm 4 m/s 763 mmHg 39%
    09:00 +20°C° 0 mm 5 m/s 763 mmHg 38%
    10:00 +22°C° 0 mm 6 m/s 764 mmHg 36%
    11:00 +23°C° 0 mm 6 m/s 763 mmHg 37%
    12:00 +24°C° 0 mm 7 m/s 763 mmHg 38%
    13:00 +24°C° 0 mm 7 m/s 762 mmHg 39%
    14:00 +24°C° 0 mm 7 m/s 762 mmHg 44%
    15:00 +23°C° 0 mm 7 m/s 762 mmHg 49%
    16:00 +22°C° 0 mm 7 m/s 762 mmHg 53%
    17:00 +21°C° 0 mm 7 m/s 762 mmHg 59%
    18:00 +20°C° 0 mm 7 m/s 762 mmHg 65%
    19:00 +18°C° 0 mm 7 m/s 763 mmHg 71%
    20:00 +18°C° 0 mm 8 m/s 763 mmHg 74%
    21:00 +17°C° 0 mm 8 m/s 763 mmHg 77%
    22:00 +17°C° 0 mm 8 m/s 763 mmHg 79%
    23:00 +17°C° 0 mm 8 m/s 763 mmHg 80%

    27 Outubro, Sábado

    Tempo Temperatura Precipitação Vento Pressão Humidade
    00:00 +17°C° 0 mm 8 m/s 763 mmHg 82%
    01:00 +17°C° 0 mm 8 m/s 763 mmHg 83%
    02:00 +17°C° 0 mm 8 m/s 762 mmHg 83%
    03:00 +17°C° 0 mm 8 m/s 762 mmHg 83%
    04:00 +17°C° 0 mm 8 m/s 762 mmHg 84%
    05:00 +17°C° 0 mm 8 m/s 762 mmHg 83%
    06:00 +17°C° 0 mm 8 m/s 762 mmHg 82%
    07:00 +18°C° 0 mm 8 m/s 762 mmHg 82%
    08:00 +19°C° 0 mm 9 m/s 762 mmHg 76%
    09:00 +22°C° 0 mm 9 m/s 762 mmHg 71%
    10:00 +24°C° 0 mm 9 m/s 762 mmHg 66%
    11:00 +24°C° 0 mm 9 m/s 762 mmHg 65%
    12:00 +24°C° 0 mm 9 m/s 762 mmHg 65%
    13:00 +24°C° 0 mm 10 m/s 761 mmHg 64%
    14:00 +24°C° 0.1 mm 9 m/s 761 mmHg 67%
    15:00 +23°C° 0.1 mm 9 m/s 761 mmHg 71%
    16:00 +23°C° 0.1 mm 9 m/s 761 mmHg 74%
    17:00 +22°C° 0.1 mm 9 m/s 761 mmHg 78%
    18:00 +21°C° 0.1 mm 9 m/s 761 mmHg 83%
    19:00 +19°C° 0.1 mm 9 m/s 761 mmHg 88%
    20:00 +19°C° 0.1 mm 9 m/s 761 mmHg 88%
    21:00 +19°C° 0.1 mm 9 m/s 761 mmHg 89%
    22:00 +18°C° 0.1 mm 9 m/s 761 mmHg 90%
    23:00 +18°C° 0 mm 9 m/s 761 mmHg 90%

    28 Outubro, Domingo

    Tempo Temperatura Precipitação Vento Pressão Humidade
    00:00 +18°C° 0 mm 9 m/s 761 mmHg 91%
    01:00 +18°C° 0 mm 9 m/s 761 mmHg 91%
    02:00 +18°C° 0 mm 9 m/s 761 mmHg 91%
    03:00 +17°C° 0 mm 9 m/s 761 mmHg 91%
    04:00 +17°C° 0 mm 9 m/s 761 mmHg 91%
    05:00 +17°C° 0 mm 9 m/s 761 mmHg 89%
    06:00 +18°C° 0 mm 9 m/s 761 mmHg 87%
    07:00 +18°C° 0 mm 10 m/s 761 mmHg 85%
    08:00 +19°C° 0 mm 10 m/s 760 mmHg 77%
    09:00 +22°C° 0 mm 10 m/s 760 mmHg 70%
    10:00 +24°C° 0 mm 11 m/s 760 mmHg 62%
    11:00 +24°C° 0 mm 11 m/s 760 mmHg 61%
    12:00 +24°C° 0 mm 12 m/s 759 mmHg 61%
    13:00 +24°C° 0 mm 12 m/s 759 mmHg 60%
    14:00 +24°C° 0.1 mm 12 m/s 759 mmHg 61%
    15:00 +23°C° 0.1 mm 12 m/s 759 mmHg 62%
    16:00 +22°C° 0.1 mm 12 m/s 759 mmHg 64%
    17:00 +21°C° 0.1 mm 12 m/s 759 mmHg 64%
    18:00 +21°C° 0.1 mm 12 m/s 759 mmHg 64%
    19:00 +19°C° 0.1 mm 12 m/s 759 mmHg 65%
    20:00 +19°C° 0.1 mm 12 m/s 759 mmHg 61%
    21:00 +19°C° 0.1 mm 12 m/s 759 mmHg 58%
    22:00 +19°C° 0.1 mm 12 m/s 759 mmHg 54%
    23:00 +19°C° 0.1 mm 12 m/s 758 mmHg 57%

    29 Outubro, Segunda-feira

    Tempo Temperatura Precipitação Vento Pressão Humidade
    00:00 +19°C° 0.1 mm 13 m/s 757 mmHg 59%
    01:00 +19°C° 0.1 mm 13 m/s 757 mmHg 62%
    02:00 +19°C° 0.2 mm 13 m/s 757 mmHg 61%
    03:00 +19°C° 0.2 mm 13 m/s 756 mmHg 59%
    04:00 +18°C° 0.2 mm 13 m/s 756 mmHg 58%
    05:00 +18°C° 2.2 mm 14 m/s 756 mmHg 62%
    06:00 +18°C° 2.2 mm 14 m/s 756 mmHg 65%
    07:00 +18°C° 2.2 mm 15 m/s 756 mmHg 69%
    08:00 +18°C° 2.5 mm 15 m/s 756 mmHg 70%
    09:00 +18°C° 2.5 mm 14 m/s 756 mmHg 72%
    10:00 +18°C° 2.5 mm 14 m/s 756 mmHg 73%
    11:00 +19°C° 1.6 mm 14 m/s 756 mmHg 74%
    12:00 +19°C° 1.6 mm 13 m/s 756 mmHg 76%
    13:00 +19°C° 1.6 mm 13 m/s 756 mmHg 77%
    14:00 +19°C° 1.1 mm 12 m/s 756 mmHg 79%
    15:00 +19°C° 1.1 mm 12 m/s 756 mmHg 80%
    16:00 +21°C° 1.1 mm 12 m/s 756 mmHg 82%
    17:00 +21°C° 0.7 mm 12 m/s 756 mmHg 83%
    18:00 +19°C° 0.7 mm 12 m/s 756 mmHg 85%
    19:00 +19°C° 0.7 mm 12 m/s 756 mmHg 86%
    20:00 +19°C° 1 mm 11 m/s 756 mmHg 87%
    21:00 +19°C° 1 mm 11 m/s 756 mmHg 87%
    22:00 +19°C° 1 mm 11 m/s 756 mmHg 88%
    23:00 +19°C° 2.8 mm 11 m/s 756 mmHg 89%

    30 Outubro, Terça-feira

    Tempo Temperatura Precipitação Vento Pressão Humidade
    00:00 +19°C° 2.8 mm 12 m/s 756 mmHg 90%
    01:00 +19°C° 2.8 mm 12 m/s 755 mmHg 91%
    02:00 +19°C° 2.3 mm 12 m/s 754 mmHg 90%
    03:00 +19°C° 2.3 mm 13 m/s 754 mmHg 89%
    04:00 +19°C° 2.3 mm 13 m/s 753 mmHg 88%
    05:00 +19°C° 3.4 mm 13 m/s 753 mmHg 87%
    06:00 +19°C° 3.4 mm 14 m/s 753 mmHg 87%
    07:00 +19°C° 3.4 mm 14 m/s 752 mmHg 86%
    08:00 +20°C° 9.7 mm 13 m/s 752 mmHg 82%
    09:00 +21°C° 9.7 mm 12 m/s 752 mmHg 78%
    10:00 +22°C° 9.7 mm 11 m/s 752 mmHg 74%
    11:00 +21°C° 9.7 mm 10 m/s 752 mmHg 82%
    12:00 +18°C° 9.7 mm 9 m/s 753 mmHg 89%
    13:00 +17°C° 9.7 mm 7 m/s 753 mmHg 97%
    14:00 +16°C° 3.7 mm 6 m/s 754 mmHg 94%
    15:00 +15°C° 3.7 mm 4 m/s 755 mmHg 92%
    16:00 +14°C° 3.7 mm 3 m/s 755 mmHg 90%
    17:00 +14°C° 1 mm 4 m/s 756 mmHg 89%
    18:00 +14°C° 1 mm 4 m/s 757 mmHg 89%
    19:00 +14°C° 1 mm 5 m/s 758 mmHg 88%
    20:00 +13°C° 0 mm 5 m/s 759 mmHg 88%
    21:00 +13°C° 0 mm 5 m/s 760 mmHg 87%
    22:00 +13°C° 0 mm 5 m/s 761 mmHg 87%
    23:00 +13°C° 0 mm 5 m/s 761 mmHg 87%
    Mostrar mais